This demonstration page uses our WeatherBlox Daily Observations layout. Learn more.

Left ArrowRight Arrow

Hourly Observations for November 22, 2016

Temp ( °F °C ) Dew Point ( °F °C ) Humidity (%) Winds ( mph kmh ) Pressure ( in mb ) Visibility ( mi km ) Precip ( " mm )
12:53 am 00:53 Clear 50 10 42 5.6 74 74 Calm 29.80 1009 10 16 0.00 0.00
1:53 am 01:53 Mostly Clear 48 8.9 42 5.6 80 80 Calm 29.80 1009 10 16 0.00 0.00
2:53 am 02:53 Clear 45 7.2 41 5 86 86 NNE 3 6 29.80 1009 10 16 0.00 0.00
3:53 am 03:53 Clear 43 6.1 40 4.4 89 89 NNW 3 6 29.80 1009 10 16 0.00 0.00
4:53 am 04:53 Clear 47 8.3 43 6.1 86 86 NNE 5 7 29.81 1010 10 16 0.00 0.00
5:53 am 05:53 Clear 46 7.8 42 5.6 86 86 SE 8 13 29.83 1010 10 16 0.00 0.00
6:53 am 06:53 Clear 44 6.7 41 5 89 89 Calm 29.85 1011 10 16 0.00 0.00
7:53 am 07:53 Sunny 43 6.1 41 5 93 93 Calm 29.88 1012 10 16 0.00 0.00
8:53 am 08:53 Sunny 54 12.2 44 6.7 69 69 SSW 3 6 29.90 1012 10 16 0.00 0.00
9:04 am 09:04 Mostly Sunny 57 14 43 6 59 59 W 6 9 29.91 1013 10 16 0.00 0.00
9:53 am 09:53 Sunny 63 17.2 39 3.9 41 41 W 14 22 29.88 1012 10 16 0.00 0.00
10:53 am 10:53 Sunny 67 19.4 38 3.3 35 35 W 21 33 29.86 1011 10 16 0.00 0.00
11:53 am 11:53 Sunny 71 21.7 37 2.8 29 29 W 26 43 29.86 1011 10 16 0.00 0.00
12:53 pm 12:53 Sunny 72 22.2 33 0.6 24 24 W 30 48 29.83 1010 10 16 0.00 0.00
1:53 pm 13:53 Sunny 72 22.2 32 0 23 23 W 25 41 29.82 1010 10 16 0.00 0.00
2:53 pm 14:53 Sunny 72 22.2 30 -1.1 21 21 WSW 25 41 29.82 1010 10 16 0.00 0.00
3:53 pm 15:53 Sunny 72 22.2 26 -3.3 18 18 W 29 46 29.82 1010 10 16 0.00 0.00
4:53 pm 16:53 Sunny 71 21.7 22 -5.6 16 16 W 18 30 29.84 1011 10 16 0.00 0.00
5:53 pm 17:53 Clear 66 18.9 20 -6.7 17 17 W 14 22 29.89 1012 10 16 0.00 0.00
6:53 pm 18:53 Clear 62 16.7 21 -6.1 21 21 W 8 13 29.94 1014 10 16 0.00 0.00
7:53 pm 19:53 Clear 58 14.4 23 -5 26 26 W 7 11 29.98 1015 10 16 0.00 0.00
8:53 pm 20:53 Clear 54 12.2 26 -3.3 34 34 NNW 12 19 30.01 1016 10 16 0.00 0.00
9:53 pm 21:53 Clear 52 11.1 27 -2.8 38 38 NW 8 13 30.02 1017 10 16 0.00 0.00
10:53 pm 22:53 Clear 54 12.2 28 -2.2 37 37 NNW 10 17 30.03 1017 10 16 0.00 0.00
11:53 pm 23:53 Clear 47 8.3 32 0 56 56 N 9 15 30.07 1018 10 16 0.00 0.00

Powered by AerisWeather